Location: Newark
(48.8656°N, 2.3211°E)
Time: 07:44:17
(UTC+00:00)

Envisat - Pass Details

Date: 26 February 2019
Orbit: 764 x 766 km, 98.1° (Epoch: 23 October)

Event Time Altitude Azimuth Distance (km) Brightness Sun altitude
Rises 20:09:39 0° 224° (SW) 3,222 6.5 -26.9°
Reaches altitude 10° 20:13:55 10° 259° (W) 2,304 6.2 -27.6°
Maximum altitude 20:15:21 11° 276° (W) 2,229 6.3 -27.8°
Drops below altitude 10° 20:16:48 10° 292° (WNW) 2,308 6.5 -28.0°
Sets 20:21:06 0° 327° (NNW) 3,242 7.0 -28.7°
